EW4987 Weather Reports


Display with metric or nautical units.
time (UTC)temp
F
wind
direction
speed
MPH
gust
MPH
rain 1hr
in
rain 24hr
in
rain mn
in
humidity
%
barometer
mb
20260509054539 46 156 0.0 0.0 0.00 0.00 0.00 53 1010.9
20260509053059 47 156 0.0 0.0 0.00 0.00 0.00 53 1010.7
20260509051524 48 156 0.0 0.0 0.00 0.00 0.00 53 1010.6
20260509050033 49 156 0.0 0.0 0.00 0.00 0.00 52 1010.5
20260509044515 50 156 0.0 0.0 0.00 0.00 0.00 51 1010.4
20260509043006 51 156 0.0 0.0 0.00 0.00 0.00 50 1010.2
20260509041601 52 156 0.0 0.0 0.00 0.00 0.00 49 1010.0
20260509040112 52 156 0.0 0.0 0.00 0.00 0.00 48 1010.0
20260509034612 52 156 0.0 0.0 0.00 0.00 0.00 48 1009.8
20260509033048 54 156 0.0 0.0 0.00 0.00 0.00 46 1009.5
20260509031545 57 156 0.0 0.0 0.00 0.00 0.00 40 1009.2
20260509030042 58 161 0.0 0.0 0.00 0.00 0.00 40 1009.0
20260509024542 59 164 0.0 0.0 0.00 0.00 0.00 38 1009.0
20260509023043 60 252 0.0 0.0 0.00 0.00 0.00 37 1008.9
20260509021528 63 257 0.0 0.0 0.00 0.00 0.00 34 1008.9
20260509020024 67 257 0.0 0.0 0.00 0.00 0.00 27 1008.9
20260509014520 67 257 0.0 0.0 0.00 0.00 0.00 27 1008.9
20260509013016 67 256 0.0 0.0 0.00 0.00 0.00 28 1009.1
20260509011511 67 260 0.0 0.0 0.00 0.00 0.00 27 1009.2
20260509010012 68 265 0.0 0.0 0.00 0.00 0.00 26 1009.2
20260509004501 68 247 0.0 0.0 0.00 0.00 0.00 26 1009.2
20260509003131 69 289 0.0 0.0 0.00 0.00 0.00 28 1009.2
20260509001559 68 280 0.0 0.0 0.00 0.00 0.00 27 1009.3
20260509000106 68 307 0.0 0.0 0.00 0.00 0.00 28 1009.4
20260508234545 68 295 0.0 0.0 0.00 0.00 0.00 25 1009.5
20260508233040 68 309 0.0 0.0 0.00 0.00 0.00 28 1009.4
20260508231540 68 267 0.0 0.0 0.00 0.00 0.00 29 1009.7
20260508230033 68 292 0.0 0.0 0.00 0.00 0.00 26 1009.9
20260508224526 68 277 0.0 0.0 0.00 0.00 0.00 26 1010.1
20260508223022 68 230 0.0 0.0 0.00 0.00 0.00 26 1010.1
20260508221521 67 257 0.0 0.0 0.00 0.00 0.00 28 1010.4
20260508220016 67 273 0.0 0.0 0.00 0.00 0.00 28 1010.3
20260508214512 67 282 0.0 0.0 0.00 0.00 0.00 27 1010.6
20260508213011 68 302 0.0 0.0 0.00 0.00 0.00 23 1010.6
20260508211509 67 252 0.0 0.0 0.00 0.00 0.00 26 1010.9
20260508210006 67 254 0.0 0.0 0.00 0.00 0.00 20 1010.7
20260508204601 66 262 0.0 0.0 0.00 0.00 0.00 24 1010.7
20260508203058 67 284 0.0 0.0 0.00 0.00 0.00 25 1010.7
20260508201600 68 232 0.0 0.0 0.00 0.00 0.00 27 1010.5
20260508200058 68 305 0.0 0.0 0.00 0.00 0.00 25 1010.6
20260508194543 67 319 0.0 0.0 0.00 0.00 0.00 28 1010.4
20260508193138 67 329 0.0 0.0 0.00 0.00 0.00 29 1010.7
20260508191537 67 262 0.0 0.0 0.00 0.00 0.00 24 1010.9
20260508190038 67 286 0.0 0.0 0.00 0.00 0.00 33 1010.9
20260508184525 67 332 0.0 0.0 0.00 0.00 0.00 32 1010.9
20260508183020 67 288 0.0 0.0 0.00 0.00 0.00 31 1010.9
20260508181516 66 305 0.0 0.0 0.00 0.00 0.00 34 1011.0
20260508180010 66 319 0.0 0.0 0.00 0.00 0.00 29 1011.3
20260508174516 66 307 0.0 0.0 0.00 0.00 0.00 31 1011.4
20260508173002 65 331 0.0 0.0 0.00 0.00 0.00 34 1011.7
20260508171601 64 342 0.0 0.0 0.00 0.00 0.00 35 1011.8
20260508170056 62 323 0.0 0.0 0.00 0.00 0.00 41 1012.0
20260508164550 60 253 0.0 0.0 0.00 0.00 0.00 31 1012.3
20260508163110 57 250 0.0 0.0 0.00 0.00 0.00 33 1012.4
20260508161540 56 250 0.0 0.0 0.00 0.00 0.00 27 1012.7
20260508160036 53 250 0.0 0.0 0.00 0.00 0.00 7 1012.8
20260508154531 52 250 0.0 0.0 0.00 0.00 0.00 5 1013.0
20260508153030 51 250 0.0 0.0 0.00 0.00 0.00 1 1013.1
20260508151531 50 250 0.0 0.0 0.00 0.00 0.00 1 1013.1
20260508150017 47 250 0.0 0.0 0.00 0.00 0.00 1 1013.2
20260508144513 45 250 0.0 0.0 0.00 0.00 0.00 1 1013.4
20260508143009 43 250 0.0 0.0 0.00 0.00 0.00 1 1013.5
20260508141505 42 250 0.0 0.0 0.00 0.00 0.00 1 1013.6
20260508140100 41 250 0.0 0.0 0.00 0.00 0.00 1 1013.7
20260508134601 39 250 0.0 0.0 0.00 0.00 0.00 1 1013.7
20260508133051 37 250 0.0 0.0 0.00 0.00 0.00 1 1013.6
20260508131554 37 250 0.0 0.0 0.00 0.00 0.00 1 1013.5
20260508130053 35 250 0.0 0.0 0.00 0.00 0.00 1 1013.3
20260508124538 35 250 0.0 0.0 0.00 0.00 0.00 1 1013.2
20260508123037 34 250 0.0 0.0 0.00 0.00 0.00 1 1013.1
20260508121530 34 250 0.0 0.0 0.00 0.00 0.00 1 1012.9
20260508120025 35 250 0.0 0.0 0.00 0.00 0.00 1 1012.7
20260508114521 35 250 0.0 0.0 0.00 0.00 0.00 1 1012.6
20260508113016 35 250 0.0 0.0 0.00 0.00 0.00 1 1012.6
20260508111512 34 250 0.0 0.0 0.00 0.00 0.00 1 1012.5
20260508110007 36 250 0.0 0.0 0.00 0.00 0.00 1 1012.4
20260508104502 36 250 0.0 0.0 0.00 0.00 0.00 1 1012.5
20260508103100 36 250 0.0 0.0 0.00 0.00 0.00 1 1012.3
20260508101556 36 250 0.0 0.0 0.00 0.00 0.00 1 1012.1
20260508100050 36 250 0.0 0.0 0.00 0.00 0.00 1 1011.9
20260508094553 37 250 0.0 0.0 0.00 0.00 0.00 1 1011.8
20260508093053 37 250 0.0 0.0 0.00 0.00 0.00 1 1011.7
20260508091539 38 250 0.0 0.0 0.00 0.00 0.00 1 1011.7
20260508090051 38 250 0.0 0.0 0.00 0.00 0.00 1 1011.5
20260508084528 38 250 0.0 0.0 0.00 0.00 0.00 1 1011.7
20260508083026 39 250 0.0 0.0 0.00 0.00 0.00 1 1011.5
20260508081520 39 250 0.0 0.0 0.00 0.00 0.00 1 1011.5
20260508080030 39 250 0.0 0.0 0.00 0.00 0.00 1 1011.5
20260508074514 40 250 0.0 0.0 0.00 0.00 0.00 1 1011.5
20260508073006 41 250 0.0 0.0 0.00 0.00 0.00 1 1011.4
20260508071501 41 250 0.0 0.0 0.00 0.00 0.00 1 1011.2
20260508070057 42 250 0.0 0.0 0.00 0.00 0.00 1 1011.1
20260508064553 43 250 0.0 0.0 0.00 0.00 0.00 1 1011.0
20260508063053 43 250 0.0 0.0 0.00 0.00 0.00 18 1010.8
20260508061547 44 250 0.0 0.0 0.00 0.00 0.00 23 1010.6
20260508060043 44 250 0.0 0.0 0.00 0.00 0.00 34 1010.5